| time (UTC) | temp C | wind direction | speed KPH | gust KPH | rain 1hr cm | rain 24hr cm | rain mn cm | humidity % | barometer mb |
| 20260506203051 | 12 | 0.0 | 0.0 | 0.00 | 0.00 | 0.00 | 70 | 1009.9 | |
| 20260506201649 | 12 | 0.0 | 0.0 | 0.00 | 0.00 | 0.00 | 70 | 1009.7 | |
| 20260506200059 | 12 | 0.0 | 0.0 | 0.00 | 0.00 | 0.00 | 71 | 1009.5 | |
| 20260506194555 | 12 | 0.0 | 0.0 | 0.00 | 0.00 | 0.00 | 75 | 1009.4 | |
| 20260506193052 | 12 | 0.0 | 0.0 | 0.00 | 0.00 | 0.00 | 75 | 1009.3 | |
| 20260506191648 | 12 | 0.0 | 0.0 | 0.00 | 0.00 | 0.00 | 73 | 1009.2 | |
| 20260506190025 | 13 | 0.0 | 0.0 | 0.00 | 0.00 | 0.00 | 73 | 1009.1 | |
| 20260506184525 | 13 | 0.0 | 0.0 | 0.00 | 0.00 | 0.00 | 73 | 1009.0 | |
| 20260506183037 | 13 | 0.0 | 0.0 | 0.00 | 0.00 | 0.00 | 72 | 1008.9 | |
| 20260506181534 | 13 | 0.0 | 0.0 | 0.00 | 0.00 | 0.00 | 65 | 1008.7 | |
| 20260506180032 | 13 | 0.0 | 0.0 | 0.00 | 0.00 | 0.00 | 63 | 1008.4 | |
| 20260506174524 | 13 | 0.0 | 0.0 | 0.00 | 0.00 | 0.00 | 62 | 1008.3 | |
| 20260506173028 | 13 | 0.0 | 0.0 | 0.00 | 0.00 | 0.00 | 67 | 1008.2 | |
| 20260506171526 | 13 | 57 | 6.4 | 0.0 | 0.00 | 0.00 | 0.00 | 73 | 1008.1 |
| 20260506170026 | 13 | 34 | 8.0 | 0.0 | 0.00 | 0.00 | 0.00 | 72 | 1008.0 |
| 20260506164526 | 14 | 42 | 8.0 | 0.0 | 0.00 | 0.00 | 0.00 | 71 | 1007.9 |
| 20260506163103 | 14 | 65 | 9.7 | 0.0 | 0.00 | 0.00 | 0.00 | 70 | 1007.7 |
| 20260506161610 | 14 | 49 | 8.0 | 0.0 | 0.00 | 0.00 | 0.00 | 70 | 1007.7 |
| 20260506160109 | 14 | 14 | 8.0 | 0.0 | 0.00 | 0.00 | 0.00 | 68 | 1007.7 |
| 20260506154601 | 15 | 80 | 9.7 | 0.0 | 0.00 | 0.00 | 0.00 | 67 | 1007.8 |
| 20260506153001 | 15 | 351 | 9.7 | 0.0 | 0.00 | 0.00 | 0.00 | 68 | 1007.6 |
| 20260506151502 | 15 | 46 | 9.7 | 0.0 | 0.00 | 0.00 | 0.00 | 68 | 1007.5 |
| 20260506150104 | 15 | 48 | 11.3 | 0.0 | 0.00 | 0.00 | 0.00 | 64 | 1007.6 |
| 20260506150002 | 15 | 64 | 11.3 | 0.0 | 0.00 | 0.00 | 0.00 | 64 | 1007.5 |
| 20260506144612 | 16 | 351 | 9.7 | 0.0 | 0.00 | 0.00 | 0.00 | 67 | 1007.4 |
| 20260506143054 | 15 | 9 | 9.7 | 0.0 | 0.00 | 0.00 | 0.00 | 67 | 1007.3 |
| 20260506141551 | 15 | 348 | 9.7 | 0.0 | 0.00 | 0.00 | 0.00 | 64 | 1007.5 |
| 20260506140105 | 15 | 36 | 9.7 | 0.0 | 0.00 | 0.00 | 0.00 | 64 | 1007.5 |
| 20260506134547 | 15 | 348 | 9.7 | 0.0 | 0.00 | 0.00 | 0.00 | 68 | 1007.6 |
| 20260506133035 | 15 | 355 | 11.3 | 0.0 | 0.00 | 0.00 | 0.00 | 69 | 1007.7 |
| 20260506131543 | 15 | 336 | 9.7 | 0.0 | 0.00 | 0.00 | 0.00 | 68 | 1007.6 |
| 20260506130045 | 15 | 336 | 11.3 | 0.0 | 0.00 | 0.00 | 0.00 | 69 | 1007.5 |
| 20260506124534 | 14 | 355 | 8.0 | 0.0 | 0.00 | 0.00 | 0.00 | 70 | 1007.3 |
| 20260506123044 | 14 | 62 | 11.3 | 0.0 | 0.00 | 0.00 | 0.00 | 68 | 1007.3 |
| 20260506121545 | 15 | 355 | 9.7 | 0.0 | 0.00 | 0.00 | 0.00 | 70 | 1007.3 |
| 20260506120037 | 14 | 79 | 9.7 | 0.0 | 0.00 | 0.00 | 0.00 | 74 | 1007.3 |
| 20260506114536 | 13 | 48 | 8.0 | 0.0 | 0.00 | 0.00 | 0.00 | 74 | 1007.2 |
| 20260506113034 | 14 | 51 | 8.0 | 0.0 | 0.00 | 0.00 | 0.00 | 74 | 1007.2 |
| 20260506111532 | 15 | 346 | 11.3 | 0.0 | 0.00 | 0.00 | 0.00 | 72 | 1007.1 |
| 20260506110038 | 15 | 294 | 11.3 | 0.0 | 0.00 | 0.00 | 0.00 | 71 | 1007.1 |
| 20260506104528 | 15 | 77 | 8.0 | 0.0 | 0.00 | 0.00 | 0.00 | 71 | 1007.1 |
| 20260506103025 | 14 | 337 | 9.7 | 0.0 | 0.00 | 0.00 | 0.00 | 72 | 1007.0 |
| 20260506101529 | 13 | 277 | 6.4 | 0.0 | 0.00 | 0.00 | 0.00 | 74 | 1007.0 |
| 20260506100023 | 13 | 49 | 8.0 | 0.0 | 0.00 | 0.00 | 0.00 | 75 | 1006.9 |
| 20260506094526 | 13 | 19 | 8.0 | 0.0 | 0.00 | 0.00 | 0.00 | 71 | 1007.0 |
| 20260506093031 | 14 | 38 | 8.0 | 0.0 | 0.00 | 0.00 | 0.00 | 72 | 1007.1 |
| 20260506091520 | 13 | 46 | 8.0 | 0.0 | 0.00 | 0.00 | 0.00 | 76 | 1007.1 |
| 20260506090016 | 13 | 19 | 9.7 | 0.0 | 0.00 | 0.00 | 0.00 | 77 | 1006.9 |
| 20260506084513 | 12 | 17 | 9.7 | 0.0 | 0.00 | 0.00 | 0.00 | 78 | 1006.8 |
| 20260506083010 | 12 | 53 | 9.7 | 0.0 | 0.00 | 0.00 | 0.00 | 80 | 1006.8 |
| 20260506081513 | 12 | 58 | 9.7 | 0.0 | 0.00 | 0.00 | 0.00 | 83 | 1006.7 |
| 20260506073057 | 11 | 347 | 6.4 | 0.0 | 0.00 | 0.00 | 0.00 | 85 | 1006.7 |
| 20260506071555 | 11 | 0.0 | 0.0 | 0.00 | 0.00 | 0.00 | 86 | 1006.6 | |
| 20260506061547 | 10 | 0.0 | 0.0 | 0.00 | 0.00 | 0.00 | 89 | 1006.4 | |
| 20260506044526 | 10 | 0.0 | 0.0 | 0.00 | 0.00 | 0.00 | 85 | 1006.5 | |
| 20260506043016 | 10 | 0.0 | 0.0 | 0.00 | 0.00 | 0.00 | 83 | 1006.4 | |
| 20260506041511 | 10 | 0.0 | 0.0 | 0.00 | 0.00 | 0.00 | 82 | 1006.3 | |
| 20260506040007 | 10 | 0.0 | 0.0 | 0.00 | 0.00 | 0.00 | 81 | 1006.4 | |
| 20260506034504 | 10 | 0.0 | 0.0 | 0.00 | 0.00 | 0.00 | 80 | 1006.4 | |
| 20260506033058 | 10 | 0.0 | 0.0 | 0.00 | 0.00 | 0.00 | 79 | 1006.5 | |
| 20260506031558 | 10 | 0.0 | 0.0 | 0.00 | 0.00 | 0.00 | 81 | 1006.6 | |
| 20260506030051 | 10 | 0.0 | 0.0 | 0.00 | 0.00 | 0.00 | 81 | 1006.7 | |
| 20260506024552 | 10 | 0.0 | 0.0 | 0.00 | 0.00 | 0.00 | 81 | 1006.9 | |
| 20260506023039 | 10 | 0.0 | 0.0 | 0.00 | 0.00 | 0.00 | 80 | 1007.0 | |
| 20260506021534 | 10 | 0.0 | 0.0 | 0.00 | 0.00 | 0.00 | 80 | 1006.9 | |
| 20260506020034 | 9 | 0.0 | 0.0 | 0.00 | 0.00 | 0.00 | 80 | 1007.0 | |
| 20260506014526 | 9 | 0.0 | 0.0 | 0.00 | 0.00 | 0.00 | 80 | 1007.1 | |
| 20260506013025 | 9 | 0.0 | 0.0 | 0.00 | 0.00 | 0.00 | 80 | 1007.1 | |
| 20260506011521 | 9 | 0.0 | 0.0 | 0.00 | 0.00 | 0.00 | 81 | 1007.1 | |
| 20260506010043 | 9 | 0.0 | 0.0 | 0.00 | 0.00 | 0.00 | 81 | 1007.0 | |
| 20260506004513 | 9 | 0.0 | 0.0 | 0.00 | 0.00 | 0.00 | 80 | 1007.2 | |
| 20260506003011 | 9 | 0.0 | 0.0 | 0.00 | 0.00 | 0.00 | 80 | 1007.4 | |
| 20260506001506 | 9 | 0.0 | 0.0 | 0.00 | 0.00 | 0.00 | 79 | 1007.6 | |
| 20260506000002 | 9 | 0.0 | 0.0 | 0.00 | 0.00 | 0.00 | 79 | 1007.6 | |
| 20260505234558 | 9 | 0.0 | 0.0 | 0.00 | 0.00 | 0.00 | 79 | 1007.7 | |
| 20260505233022 | 9 | 0.0 | 0.0 | 0.00 | 0.00 | 0.00 | 80 | 1007.7 | |
| 20260505231518 | 9 | 0.0 | 0.0 | 0.00 | 0.00 | 0.00 | 80 | 1007.9 | |
| 20260505230020 | 9 | 0.0 | 0.0 | 0.00 | 0.00 | 0.00 | 79 | 1008.0 | |
| 20260505224510 | 10 | 0.0 | 0.0 | 0.00 | 0.00 | 0.00 | 79 | 1008.0 | |
| 20260505223046 | 10 | 0.0 | 0.0 | 0.00 | 0.00 | 0.00 | 79 | 1008.0 | |
| 20260505221537 | 10 | 0.0 | 0.0 | 0.00 | 0.00 | 0.00 | 79 | 1008.0 | |
| 20260505220032 | 10 | 0.0 | 0.0 | 0.00 | 0.00 | 0.00 | 79 | 1008.1 | |
| 20260505214529 | 10 | 0.0 | 0.0 | 0.00 | 0.00 | 0.00 | 79 | 1008.2 | |
| 20260505213024 | 10 | 0.0 | 0.0 | 0.00 | 0.00 | 0.00 | 78 | 1008.2 | |
| 20260505211517 | 10 | 0.0 | 0.0 | 0.00 | 0.00 | 0.00 | 78 | 1008.2 | |
| 20260505210008 | 11 | 0.0 | 0.0 | 0.00 | 0.00 | 0.00 | 79 | 1008.3 | |
| 20260505204504 | 11 | 0.0 | 0.0 | 0.00 | 0.00 | 0.00 | 79 | 1008.3 |